Regional Weather Roundup
Issued by NWS State College, PA

Home | Current Version | Previous Version | Text Only | Print | Product List | Glossary On
Versions: 1 2 3 4 5 6 7 8 9 10 11 12 13 14 15 16 17 18 19 20 21 22 23 24 25 26 27 28 29 30 31 32 33 34 35 36 37 38 39 40 41 42 43 44 45 46 47 48 49 50
000
ASUS41 KCTP 201103
RWRCTP

REGIONAL WEATHER ROUNDUP
NATIONAL WEATHER SERVICE STATE COLLEGE PA
600 AM EST MON FEB 20 2017

Note: "fair" indicates few or no clouds below 12,000 feet with no
significant weather and/or obstructions to visibility.

* = STATION THAT DOES NOT REPORT PRECIPITATION /E.G. RAIN...SNOW...ETC/
    THUNDER OR FOG.

PAZ002>004-007>009-013>016-020>023-029>032-201200-
WESTERN PENNSYLVANIA

CITY           SKY/WX    TMP DP  RH WIND       PRES   REMARKS
ERIE           CLEAR     29  27  92 CALM      30.24R
MEADVILLE      CLOUDY    31  27  85 CALM      30.20R
FRANKLIN*      CLOUDY    28  25  86 CALM      30.21R
NEW CASTLE     FAIR      29  27  92 E6        30.23R
BEAVER COUNTY  NOT AVBL
BUTLER*        PTCLDY    32  28  86 CALM      30.22R
PITTSBURGH INT MOCLDY    36  36 100 CALM      30.20R FOG
PITTSBURGH     FOG       41  39  93 SW6       30.20R VSB 1/4
INDIANA*       FOG       37  37 100 CALM      30.23R VSB 0
LATROBE        CLOUDY    45  45 100 SW6       30.22R FOG
WASHINGTON CO* CLOUDY    39  37  93 CALM      30.23R VSB 1/4
$$

PAZ004>006-010>012-017>019-024>028-033>037-041-042-045-046-049>053-201200-
CENTRAL PENNSYLVANIA

CITY           SKY/WX    TMP DP  RH WIND       PRES   REMARKS
BRADFORD       CLEAR     30  28  92 N3        30.17R
DUBOIS         CLEAR     35  28  75 W5        30.18R
CLEARFIELD       N/A    N/A N/A N/A MISG      30.18R
JOHNSTOWN      CLEAR     39  38  96 W9        30.16R
ALTOONA        CLEAR     40  32  73 CALM      30.17R
STATE COLLEGE  CLEAR     39  28  65 CALM      30.18R
WILLIAMSPORT   CLEAR     37  30  75 NW3       30.17R
SELINSGROVE    CLEAR     32  30  92 N3        30.17R
FT INDIANTOWN  CLEAR     46  32  58 W3        30.15R
CAPITAL CITY   CLEAR     46  29  51 NW3       30.15R
HARRISBURG     CLEAR     45  31  58 N7        30.15R
YORK           CLEAR     31  28  89 CALM      30.14R
$$

PAZ038>040-043-044-047-048-054-055-060>062-067>071-201200-
EASTERN PENNSYLVANIA

CITY           SKY/WX    TMP DP  RH WIND       PRES   REMARKS
SCRANTON       MOCLDY    37  30  75 NW9       30.15R
MOUNT POCONO   CLEAR     33  29  85 NW8       30.07R
ALLENTOWN      CLEAR     39  30  70 CALM      30.14R
QUAKERTOWN*    SUNNY     36  32  87 CALM      30.14R
READING        CLEAR     45  34  65 CALM      30.13R
LANCASTER      CLEAR     41  32  70 N6        30.14R
COATESVILLE    SUNNY     45  32  61 N5        30.14R
POTTSTOWN      CLEAR     41  32  70 N3        30.14R
BLUE BELL      CLEAR     37  32  81 CALM      30.12R
DOYLESTOWN     CLEAR     45  32  60 N6        30.12R
WILLOW GROVE   NOT AVBL
NORTH PHILA    CLEAR     45  32  60 N10       30.14R
PHILADELPHIA   CLEAR     44  32  62 N9        30.14R
$$




USA.gov is the U.S. government's official web portal to all federal, state and local government web resources and services.